Location: Marstown
(39.5056°N, 77.0820°W)
Time: 19:14:06
(UTC-04:00)

Hubble Space Telescope - Visible Passes

Search period start: 18 August 2019 00:00
Search period end: 28 August 2019 00:00
Orbit: 536 x 540 km, 28.5° (Epoch: 17 August)

Date Brightness Start Highest point End Pass type
(mag) Time Alt. Az. Time Alt. Az. Time Alt. Az.
18 Aug 2.6 21:13:44 10° SW 21:16:20 16° S 21:17:27 15° SSE visible
19 Aug 2.8 21:03:16 10° SW 21:05:40 15° S 21:07:23 12° SSE visible
20 Aug 3.0 20:52:52 10° SW 20:55:01 14° SSW 20:57:10 10° SSE visible
21 Aug 3.1 20:42:36 10° SW 20:44:21 12° SSW 20:46:05 10° S visible
22 Aug 3.2 20:32:40 10° SSW 20:33:40 11° SSW 20:34:40 10° S visible
